This is the latest recevied weather packets stored in our database for station/object N8QYG-1. If no packets are shown the sender has not sent any weather packets the latest 1 day(s).
| Time | Temp. | Humidity | Pressure | Rain* | Wind** | Luminosity | Snow |
|---|---|---|---|---|---|---|---|
| 1778034018 | 10.56° C | 5% | - | 0 mm | 0.45 m/s, 265° | - | - |
| 1778033418 | 10.56° C | 5% | - | 0 mm | 1.34 m/s, 259° | - | - |
| 1778032818 | 10.56° C | 5% | - | 0 mm | 1.79 m/s, 270° | - | - |
| 1778032219 | 10.56° C | 4% | - | 0 mm | 0.45 m/s, 290° | - | - |
| 1778031618 | 10.56° C | 4% | - | 0 mm | 0.89 m/s, 290° | - | - |
| 1778031018 | 10.56° C | 4% | - | 0 mm | 0.89 m/s, 288° | - | - |
| 1778030418 | 10.56° C | 5% | - | 0 mm | 0.89 m/s, 271° | - | - |
| 1778029818 | 11.11° C | 5% | - | 0 mm | 1.79 m/s, 280° | - | - |
| 1778029217 | 11.11° C | 5% | - | 0 mm | 1.34 m/s, 254° | - | - |
| 1778028619 | 11.11° C | 5% | - | 0 mm | 1.34 m/s, 270° | - | - |
| 1778028018 | 11.11° C | 5% | - | 0 mm | 0.89 m/s, 267° | - | - |
| 1778027419 | 11.11° C | 5% | - | 0 mm | 0.45 m/s, 259° | - | - |
| 1778026818 | 11.11° C | 5% | - | 0 mm | 0.89 m/s, 262° | - | - |
| 1778026219 | 11.11° C | 5% | - | 0 mm | 0.45 m/s, 262° | - | - |
| 1778025618 | 11.67° C | 5% | - | 0 mm | 1.34 m/s, 260° | - | - |
| 1778025019 | 11.67° C | 5% | - | 0 mm | 0.89 m/s, 269° | - | - |
| 1778024418 | 11.67° C | 5% | - | 0 mm | 0.45 m/s, 296° | - | - |
| 1778023818 | 11.67° C | 5% | - | 0 mm | 0.45 m/s, 281° | - | - |
| 1778023218 | 11.67° C | 5% | - | 0 mm | 0.89 m/s, 302° | - | - |
| 1778022619 | 12.22° C | 5% | - | 0 mm | 0.89 m/s, 263° | - | - |
| 1778022019 | 12.22° C | 5% | - | 0 mm | 1.34 m/s, 310° | - | - |
| 1778021420 | 12.22° C | 5% | - | 0 mm | 0.89 m/s, 251° | - | - |
| 1778020818 | 12.22° C | 5% | - | 0 mm | 1.34 m/s, 282° | - | - |
| 1778020219 | 12.22° C | 5% | - | 0 mm | 3.13 m/s, 294° | - | - |
| 1778019618 | 12.22° C | 5% | - | 0 mm | 1.79 m/s, 312° | - | - |
* Rain latest hour (hover to see other rain measurements)
** Current wind speed in m/s (hover to see current wind gust speed)